Flag for Canada Weather past 2 weeks in Oshawa, Ontario, Canada

Now
12 °F

Overcast.


Feels Like: 0 °F
Forecast: 10 / 20 °F
Wind: 9 mph from Northeast

Location: Toronto Buttonville

Current Time: Jan 26, 2015 at 11:14:59 PM

Latest Report: Jan 26, 2015 at 10:00 PM


Visibility: 15 mi

Pressure: 30.05 "Hg

Humidity: 62%

Dew point: 1 °F

Location of OshawaLocation

Historic Weather in Oshawa — Graph

°F

Oshawa temperature yesterday

Maximum temperature yesterday: 28 °F (at 12:00 AM)
Minimum temperature yesterday: 7 °F (at 8:00 AM)
Average temperature yesterday: 13 °F

Past Weeks' High & Low Weather Summary

 TemperatureHumidityPressure
High41 °F (Jan 18, 7:00 AM)100% (Jan 12, 7:00 AM)30.85 "Hg (Jan 12, 7:00 AM)
Low-6 °F (Jan 13, 5:00 AM)30% (Jan 13, 4:00 PM)29.47 "Hg (Jan 24, 3:00 PM)
Average19 °F72%30.08 "Hg
* Reported Jan 11 9:00 PM — Jan 26 9:00 PM, Oshawa, Weather by CustomWeather, © 2014

Note: Actual official high and low records may vary slightly from our data, if they occured in-between our weather recording intervals... More about our weather records

Advertising

Oshawa weather history for previous 24 hours

 ConditionsComfort  
Time TempWeatherWind HumidityBarometerVisibility
9:00 PM
Jan 26
12 °FOvercast.10 mph67%30.05 "Hg15 mi
8:00 PM14 °FLight snow. Mostly cloudy.10 mph57%30.05 "Hg15 mi
7:51 PMN/ALight snow.10 mphN/AN/A15 mi
7:00 PM16 °FOvercast.13 mph34%30.05 "Hg15 mi
6:00 PM16 °FOvercast.13 mph34%30.03 "Hg15 mi
5:00 PM16 °FPartly sunny.12 mph41%30.01 "Hg15 mi
4:00 PM16 °FPartly sunny.12 mph37%30.00 "Hg15 mi
3:00 PM18 °FPartly sunny.10 mph35%30.00 "Hg15 mi
2:00 PM16 °FPartly sunny.9 mph37%30.00 "Hg15 mi
1:00 PM18 °FBroken clouds.12 mph35%30.01 "Hg15 mi
12:00 PM16 °FPartly sunny.12 mph37%30.04 "Hg15 mi
11:00 AM12 °FPartly sunny.6 mph44%30.07 "Hg12 mi
10:00 AM9 °FPartly sunny.8 mph51%30.07 "Hg15 mi
9:00 AM7 °FScattered clouds.7 mph51%30.07 "Hg15 mi
8:00 AM3 °FPassing clouds.6 mph60%30.08 "Hg15 mi
7:00 AM5 °FPassing clouds.7 mph60%30.06 "Hg15 mi
6:00 AM7 °FPassing clouds.9 mph56%30.05 "Hg12 mi
5:00 AM7 °FPartly cloudy.9 mph56%30.06 "Hg12 mi
4:00 AM7 °FPartly cloudy.10 mph56%30.07 "Hg14 mi
3:00 AM7 °FPassing clouds.9 mph56%30.08 "Hg15 mi
2:00 AM7 °FPassing clouds.5 mph61%30.09 "Hg15 mi
1:00 AM9 °FPartly cloudy.6 mph56%30.09 "Hg15 mi
12:00 AM9 °FPassing clouds.6 mph61%30.11 "Hg15 mi
11:00 PM
Jan 25
9 °FPassing clouds.9 mph66%30.10 "Hg15 mi
Weather by CustomWeather, © 2014

See weather overviewHow to use our weather pages